Regional Weather Roundup
Issued by NWS

Home | Current Version | Previous Version | Graphics & Text | Print | Product List | Glossary On
Versions: 1 2 3 4 5 6 7 8 9 10 11 12 13 14 15 16 17 18 19 20 21 22 23 24 25 26 27
000
ASUS45 KSLC 252210
RWRUT

UTAH REGIONAL WEATHER ROUNDUP
NATIONAL WEATHER SERVICE SALT LAKE CITY UT
400 PM MDT THU MAY 25 2017

UTZ001>011-023>025-252300-

NORTHERN UTAH

CITY           SKY/WX    TMP DP  RH WIND       PRES   REMARKS
BRIGHAM CITY   PTSUNNY   63  22  21 SW7       29.76S
DUGWAY         MOSUNNY   72  29  20 NW14G20   29.70F
HILL AFB       SUNNY     64  24  22 W3        29.76F
LOGAN          PTSUNNY   65  27  23 VRB3      29.75S
OGDEN          SUNNY     65  21  18 NW6       29.75S
SALT LAKE CITY MOSUNNY   70  29  21 N15G22    29.73F
TOOELE VALLEY  MOSUNNY   66  34  30 N13       29.74F
WENDOVER       PTSUNNY   70  26  19 NE12      29.71F
HEBER CITY     MOSUNNY   70  30  23 SW15G22   29.74S
WEST JORDAN    MOSUNNY   65  40  40 N9G21     29.75S

$$

UTZ011>015-024>027-252300-

CENTRAL/NORTHEAST UTAH

CITY           SKY/WX    TMP DP  RH WIND       PRES   REMARKS
PROVO AIRPORT  MOSUNNY   68  37  32 W12       29.74S
MOAB/CANYONLAN CLOUDY    81  20  10 W16G32    29.59F
DELTA          MOSUNNY   73  30  20 W9        29.70R
PRICE          PTSUNNY   73  25  16 W15G24    29.70F
ROOSEVELT      MOSUNNY   72  30  21 W24G37    29.69R
VERNAL         CLOUDY    73  29  19 W30G37    29.65R

$$

UTZ013>016-019>022-027-252300-

SOUTHERN UTAH

CITY           SKY/WX    TMP DP  RH WIND       PRES   REMARKS
BRYCE CANYON   PTSUNNY   69  24  18 SW25G35   29.83F
CEDAR CITY     PTSUNNY   76  25  15 SW22G31   29.71S
MILFORD        LGT RAIN  75  27  17 VRB3      29.65F
ST GEORGE      PTCLDY    91  31  11 SW18      29.54
HANKSVILLE     CLOUDY    81  21  11 NW8       29.61F
BLANDING       MOSUNNY   77  20  12 W22G28    29.77F

$$

REGIONAL REPORTS     COLORADO/ARIZONA

CITY           SKY/WX    TMP DP  RH WIND       PRES   REMARKS
CRAIG, CO      CLOUDY    52  43  71 W6        29.74R
GRAND JUNCTION MOSUNNY   76  30  18 SW15      29.64R
RIFLE, CO      CLOUDY    70  37  29 N7G25     29.64R
MONTROSE, CO   CLOUDY    77  23  13 SW16G32   29.67F
CORTEZ, CO     SUNNY     80  22  11 SW23G36   29.71F
COLORADO CITY    N/A     88  28  11 W21G29    29.72S
PAGE, AZ       MOSUNNY   85  24  11 SW12G18   29.62F
GRAND CANYON   MOSUNNY   77  16  10 W20G39    29.85F
KINGMAN, AZ    SUNNY     91  24   9 S24G35    29.69F
FLAGSTAFF, AZ  MOSUNNY   70  21  15 SW22G33   29.91F

$$

REGIONAL REPORTS    NEVADA/IDAHO/WYOMING

CITY           SKY/WX    TMP DP  RH WIND       PRES   REMARKS
LAS VEGAS, NV  MOSUNNY   97  11   4 SW22G30   29.51F HX  90
ELY, NY        MOSUNNY   71  20  14 SW12G24   29.75F
ELKO, NV       SUNNY     71  22  15 W17       29.71F
POCATELLO, ID  MOSUNNY   62  23  22 NW10      29.78F
BURLEY, ID     MOSUNNY   61  28  28 SE6       29.75F
FORT BRIDGER,  MOCLDY    59  29  32 W14G22    29.82F
EVANSTON, WY   PTSUNNY   57  27  31 W16G26    29.82R
ROCK SPRINGS,  CLOUDY    59  23  25 W17G25    29.76R
KEMMERER, WY     N/A     54  21  28 W16G24    29.81S

$$




USA.gov is the U.S. government's official web portal to all federal, state and local government web resources and services.